St. David's, Bermuda

4:29 PM AST on December 11, 2019 (GMT -0400)
Bermuda International

Weather History for TXKF - November, 2019

Change the Weather History Date:

Saturday, November 16, 2019

  Actual Average Record
Temperature  
Mean Temperature 74 °F -  
Max Temperature 77 °F 70 °F 82 °F (1997)
Min Temperature 71 °F 63 °F 59 °F (1996)
Cooling Degree Days 9    
Growing Degree Days 24 (Base 50)    
Moisture  
Dew Point 71 °F    
Average Humidity 87    
Maximum Humidity 94    
Minimum Humidity 76    
Precipitation  
Precipitation 0.03 in - - ()
Sea Level Pressure  
Sea Level Pressure 29.94 in    
Wind  
Wind Speed 9 mph ()    
Max Wind Speed 17 mph    
Max Gust Speed -    
Visibility 6.8 miles    
Events Rain    
Averages and records for this station are not official NWS values.
T = Trace of Precipitation, MM = Missing Value Source: Averaged Metar Reports

Daily Weather History Graph

Daily Weather History Graph

Search for Another Location

Airport or City:

Astronomy

Nov. 16, 2019 Rise Set
Actual Time 6:48 AM AST 5:17 PM AST
Civil Twilight 6:22 AM AST 5:43 PM AST
Nautical Twilight 5:53 AM AST 6:13 PM AST
Astronomical Twilight 5:23 AM AST 6:42 PM AST
Moon 8:52 PM AST (11/16) 10:32 AM AST (11/16)
Length of Visible Light 11h 21m
Length of Day
10h 29m
Waning Gibbous, 83% of the Moon is Illuminated
Nov 16
Waning Gibbous
Nov 19
Last Quarter
Nov 26
New
Dec 4
First Quarter
Dec 12
Full

Hourly Weather History & Observations

Time (AST) Temp. Dew Point Humidity Pressure Visibility Wind Dir Wind Speed Gust Speed Precip Events Conditions
12:55 AM 71.6 °F 69.8 °F 94% 30.01 in 6.2 mi SE 8.1 mph - N/A   Mostly Cloudy
1:55 AM 71.6 °F 69.8 °F 94% 30.01 in 6.2 mi SE 5.8 mph - N/A   Mostly Cloudy
2:00 AM 72 °F 70 °F 91% 30.03 in 9 mi SE 5.8 mph - -   Scattered Clouds
2:55 AM 73.4 °F 69.8 °F 88% 30.01 in 6.2 mi SE 5.8 mph - N/A   Mostly Cloudy
3:55 AM 73.4 °F 69.8 °F 88% 29.98 in 6.2 mi SE 6.9 mph - N/A   Mostly Cloudy
4:55 AM 73.4 °F 69.8 °F 88% 29.95 in 6.2 mi SSE 5.8 mph - N/A   Overcast
5:00 AM 73 °F 71 °F 89% 29.98 in 9 mi SSE 5.8 mph - -   Overcast
5:55 AM 73.4 °F 69.8 °F 88% 29.95 in 6.2 mi SSE 10.4 mph - N/A   Mostly Cloudy
6:55 AM 73.4 °F 69.8 °F 88% 29.98 in 6.2 mi SSE 9.2 mph - N/A   Mostly Cloudy
7:55 AM 75.2 °F 69.8 °F 83% 29.98 in 6.2 mi SSE 9.2 mph - N/A   Mostly Cloudy
8:00 AM 75 °F 70 °F 81%  in 9 mi SSE 9.2 mph - -  
8:55 AM 75.2 °F 69.8 °F 83% 29.98 in 6.2 mi SSE 9.2 mph - N/A   Mostly Cloudy
9:55 AM 75.2 °F 69.8 °F 83% 29.98 in 6.2 mi SSE 10.4 mph - N/A   Mostly Cloudy
10:55 AM 75.2 °F 69.8 °F 83% 29.98 in 6.2 mi SSE 10.4 mph - N/A   Mostly Cloudy
11:00 AM 76 °F 70 °F 76% 29.99 in 9 mi SSE 10.4 mph - -   Scattered Clouds
11:55 AM 75.2 °F 69.8 °F 83% 29.95 in 6.2 mi SSE 10.4 mph - N/A   Overcast
12:55 PM 77.0 °F 71.6 °F 83% 29.92 in 6.2 mi SSE 10.4 mph - N/A   Mostly Cloudy
1:55 PM 75.2 °F 71.6 °F 89% 29.92 in 6.2 mi SSE 11.5 mph - N/A   Mostly Cloudy
2:00 PM 77 °F 71 °F 77% 29.92 in 9 mi SSE 11.5 mph - -   Partly Cloudy
2:55 PM 77.0 °F 71.6 °F 83% 29.89 in 6.2 mi SSE 11.5 mph - N/A   Mostly Cloudy
3:55 PM 75.2 °F 71.6 °F 89% 29.89 in 6.2 mi SSE 12.7 mph - N/A   Overcast
4:08 PM 75.2 °F 71.6 °F 89% 29.89 in 6.2 mi SSE 12.7 mph - N/A   Overcast
4:55 PM 75.2 °F 71.6 °F 89% 29.89 in 6.2 mi SSE 12.7 mph - N/A   Overcast
5:00 PM 75 °F 71 °F 83% 29.91 in 9 mi SSE 12.7 mph - -   Overcast
5:55 PM 75.2 °F 71.6 °F 89% 29.92 in 6.2 mi SSE 10.4 mph - N/A   Overcast
6:25 PM 75.2 °F 71.6 °F 89% 29.89 in 6.2 mi SSE 12.7 mph - N/A   Overcast
6:55 PM 75.2 °F 71.6 °F 89% 29.92 in 6.2 mi SSE 12.7 mph - N/A   Overcast
7:23 PM 75.2 °F 71.6 °F 89% 29.89 in 6.2 mi SSE 12.7 mph - N/A   Overcast
7:55 PM 75.2 °F 71.6 °F 89% 29.89 in 6.2 mi SSE 13.8 mph - N/A Rain Light Rain
8:00 PM 74 °F 72 °F 91% 29.91 in 9 mi SSE 13.8 mph - - Rain Light Rain
8:55 PM 75.2 °F 71.6 °F 89% 29.89 in 6.2 mi SE 15.0 mph - N/A   Overcast
10:55 PM 75.2 °F 71.6 °F 89% 29.86 in 6.2 mi SSE 17.3 mph - N/A   Overcast
11:55 PM 75.2 °F 71.6 °F 89% 29.86 in 6.2 mi SSE 17.3 mph - N/A   Overcast